This is the latest recevied weather packets stored in our database for station/object WB0YAF-8. If no packets are shown the sender has not sent any weather packets the latest 1 day(s).
| Time | Temp. | Humidity | Pressure | Rain* | Wind** | Luminosity | Snow |
|---|---|---|---|---|---|---|---|
| 1778045876 | -0.56° C | 73% | 1015.8 hPa | 0 mm | - | - | - |
| 1778045576 | -0.56° C | 71% | 1015.8 hPa | 0 mm | - | - | - |
| 1778044974 | -0.56° C | 72% | 1015.8 hPa | 0 mm | - | - | - |
| 1778044674 | -0.56° C | 73% | 1015.8 hPa | 0 mm | - | - | - |
| 1778044375 | -0.56° C | 72% | 1015.8 hPa | 0 mm | - | - | - |
| 1778044076 | -0.56° C | 75% | 1015.8 hPa | 0 mm | - | - | - |
| 1778043475 | -0.56° C | 75% | 1014.9 hPa | 0 mm | - | - | - |
| 1778043174 | -0.56° C | 74% | 1014.8 hPa | 0 mm | - | - | - |
| 1778042874 | -0.56° C | 72% | 1014.8 hPa | 0 mm | - | - | - |
| 1778042276 | 0° C | 70% | 1014.8 hPa | 0 mm | - | - | - |
| 1778041976 | 0° C | 72% | 1014.8 hPa | 0 mm | - | - | - |
| 1778041675 | 0° C | 71% | 1014.8 hPa | 0 mm | - | - | - |
| 1778041074 | 0° C | 70% | 1014.8 hPa | 0 mm | - | - | - |
| 1778040774 | 0° C | 70% | 1015.6 hPa | 0 mm | - | - | - |
| 1778040476 | 0° C | 70% | 1015.8 hPa | 0 mm | - | - | - |
| 1778040176 | 0° C | 72% | 1015.8 hPa | 0 mm | - | - | - |
| 1778038974 | 0° C | 74% | 1014.8 hPa | 0 mm | - | - | - |
| 1778038675 | 0° C | 76% | 1014.8 hPa | 0 mm | - | - | - |
| 1778038375 | 0° C | 74% | 1014.8 hPa | 0 mm | - | - | - |
| 1778038075 | 0° C | 74% | 1014.8 hPa | 0 mm | - | - | - |
| 1778037776 | 0° C | 74% | 1014.8 hPa | 0 mm | - | - | - |
| 1778037175 | 0° C | 69% | 1014.8 hPa | 0 mm | - | - | - |
| 1778036875 | 0° C | 68% | 1014.8 hPa | 0 mm | - | - | - |
| 1778036575 | 0° C | 67% | 1014.8 hPa | 0 mm | - | - | - |
| 1778036275 | 0° C | 69% | 1014.8 hPa | 0 mm | - | - | - |
* Rain latest hour (hover to see other rain measurements)
** Current wind speed in m/s (hover to see current wind gust speed)